Temperature
16 16 16 16 16 16 16 16 16 15 15 15 15 15 15 15 15 15 15 15 15 15 15 14 14 14 14 14 14 14 14 14 14 14 14 14 14 14 14 14 14 14 14
16 16 16 16 16 15 15 15 15 15 15 15 15 15 15 15 15 15 15 15 14 14 14 14 14 14 14 14 14 14 14 14 14 14 14 14 14 14 14 14 14 14 14
16 16 16 16 15 15 15 15 15 15 15 15 15 15 14 14 14 14 14 14 14 14 14 14 14 14 14 14 13 13 13 13 13 13 13 14 14 14 14 14 14 14 14
16 16 16 16 15 15 15 15 15 15 15 15 15 14 14 14 14 14 14 14 14 14 14 14 14 13 13 13 13 13 13 13 13 13 13 13 13 13 13 13 13 13 13
16 16 16 15 15 15 15 15 15 15 15 14 14 14 14 14 14 14 14 14 14 14 13 13 13 13 13 13 13 13 12 12 13 13 13 13 13 13 13 13 13 13 13
16 16 15 15 15 15 15 15 15 15 14 14 14 14 14 14 14 14 13 13 13 13 13 13 13 13 13 13 13 12 12 12 12 12 12 12 12 12 12 12 12 12 12
16 16 15 15 15 15 15 15 15 14 14 14 14 14 13 13 13 13 13 13 13 13 13 13 13 13 13 13 12 12 12 12 12 12 12 12 12 12 12 12 12 12 12
16 15 15 15 15 15 15 15 14 14 14 14 14 13 13 13 13 13 13 13 13 13 13 13 12 12 12 12 12 12 12 12 12 12 12 12 11 12 12 12 12 12 12
16 16 15 15 15 15 15 14 14 14 14 14 14 13 13 13 13 13 13 13 13 13 12 12 12 12 12 12 12 12 12 12 12 12 12 11 11 11 11 11 11 12 12
16 15 15 15 15 15 15 14 14 14 14 14 14 13 13 13 13 12 12 12 12 12 12 12 12 12 12 12 12 12 12 12 12 11 11 11 11 11 11 11 11 11 11
15 15 15 15 15 15 15 14 14 14 14 14 14 13 13 13 13 12 12 12 12 12 12 12 12 12 12 11 11 11 11 11 11 11 11 11 11 11 11 11 11 11 11
15 15 15 15 14 14 14 14 14 14 14 14 13 13 13 13 13 12 12 12 12 12 12 12 12 11 11 11 11 11 11 11 11 11 11 11 11 11 11 11 11 11 11
15 15 14 14 14 14 14 14 14 14 13 13 13 13 13 13 13 12 12 12 12 12 12 12 11 11 11 11 11 11 11 11 11 11 11 11 11 11 11 11 11 11 11
15 15 14 14 14 14 14 14 14 13 13 13 13 13 13 13 13 12 12 12 12 11 11 11 11 11 11 11 11 11 11 11 11 11 11 11 11 11 11 11 11 11 11
14 14 14 14 14 14 14 13 13 13 13 13 13 13 13 12 12 12 12 12 11 11 11 11 11 11 11 11 11 11 11 11 10 10 10 10 10 10 10 10 10 10 10
14 14 14 14 14 13 13 13 13 13 13 13 13 13 13 12 12 12 12 12 11 11 11 11 11 11 11 11 11 10 10 10 10 10 10 10 10 10 10 10 10 10 10
14 14 14 14 13 13 13 13 13 13 13 13 13 13 13 12 12 12 12 12 11 11 11 11 11 11 11 11 11 10 10 10 10 10 10 10 10 10 10 10 10 10 10
14 13 13 13 13 13 13 13 13 13 13 13 13 12 12 12 12 12 12 11 11 11 11 11 11 11 11 10 10 10 10 10 10 10 10 10 10 10 10 10 10 10 10
13 13 13 13 13 13 13 13 13 12 12 12 12 12 12 12 12 12 12 11 11 11 11 11 11 10 10 10 10 10 10 10 10 10 9 9 9 9 9 9 9 9 9
13 13 13 13 13 12 12 12 12 12 12 12 12 12 12 12 12 11 11 11 11 11 11 10 10 10 10 10 10 10 10 10 10 9 9 9 9 9 9 9 9 9 9
12 12 12 12 12 12 12 12 12 12 12 12 12 12 12 11 11 11 11 11 11 11 11 10 10 10 10 10 10 10 10 9 9 9 9 9 9 9 9 9 9 9 9
12 12 12 12 12 12 12 12 12 12 12 11 11 11 11 11 11 11 11 11 11 10 10 10 10 10 10 10 9 9 9 9 9 9 9 9 8 8 9 9 9 8 8
12 12 11 11 11 11 11 11 11 11 11 11 11 11 11 11 11 11 11 10 10 10 10 10 10 10 10 10 9 9 9 9 9 8 8 8 8 8 8 8 8 8 8
11 11 11 11 11 11 11 11 11 11 11 11 11 11 11 11 11 10 10 10 10 10 10 10 10 9 9 9 9 9 9 8 8 8 8 8 8 8 8 8 8 8 8
11 11 11 11 11 11 11 10 10 10 10 10 10 10 10 10 10 10 10 10 10 10 10 10 9 9 9 9 9 9 8 8 8 8 8 8 8 8 8 8 8 8 8
10 10 10 10 10 10 10 10 10 10 10 10 10 10 10 10 10 9 9 9 9 9 9 9 9 9 9 9 9 8 8 8 8 7 8 7 8 7 7 8 8 7 7
Wind_Speed
3 3 4 5 5 6 6 5 5 6 6 7 8 8 8 8 9 10 10 11 11 11 11 11 11 11 11 12 11 11 11 10 10 10 10 9 9 9 9 8 7 7 7
3 3 3 3 4 5 5 5 5 4 4 5 6 7 7 7 9 10 11 11 12 12 11 11 11 11 11 11 11 11 11 10 10 9 9 8 9 9 9 8 8 7 7
3 3 3 2 3 4 5 5 5 5 5 5 5 6 6 7 8 9 10 10 10 11 12 11 10 10 10 10 10 10 10 10 10 9 9 8 8 8 8 8 8 8 8
4 4 3 2 3 5 4 3 3 4 4 4 4 4 5 5 7 8 9 10 10 10 10 11 11 10 10 9 9 10 10 10 10 10 10 9 8 8 7 7 8 7 7
4 4 3 2 4 4 3 3 3 3 3 3 4 4 4 4 5 6 7 8 9 10 10 11 11 11 10 9 9 9 9 9 10 10 10 10 9 7 7 7 7 7 7
4 4 3 3 4 3 3 3 4 3 3 3 4 5 4 4 4 5 5 6 7 9 9 10 10 10 11 10 9 8 8 9 9 9 10 9 9 8 7 7 7 7 7
4 4 3 3 3 3 3 3 4 4 3 2 3 3 4 4 4 4 4 4 6 7 8 8 8 8 8 9 9 8 8 8 8 8 8 9 8 9 8 7 7 7 7
4 4 3 3 3 3 3 3 3 2 2 2 2 3 2 4 4 4 4 3 4 5 6 7 7 7 7 7 8 8 8 7 7 7 7 8 8 8 8 7 7 7 7
3 3 4 3 3 3 3 3 3 3 2 1 2 3 2 1 2 3 3 4 4 4 4 5 6 6 6 6 6 7 7 7 7 7 7 7 7 7 7 7 7 7 7
2 3 3 3 3 3 3 3 3 2 3 2 1 2 2 3 2 1 3 3 3 3 3 4 4 5 6 6 6 7 7 8 7 7 7 7 7 6 6 6 6 6 6
1 1 2 3 2 2 3 3 2 3 3 3 2 2 2 2 2 2 1 3 3 2 2 3 3 4 5 5 5 6 7 7 7 6 6 6 6 5 5 5 5 5 5
0 0 1 2 2 2 2 3 3 3 3 3 2 2 3 2 2 2 2 1 2 2 2 2 2 3 4 4 5 6 6 6 6 6 6 6 6 5 5 5 5 5 5
1 2 1 2 1 2 2 2 3 3 3 3 3 2 2 2 2 2 2 1 1 2 2 2 2 2 3 4 4 5 5 5 5 5 6 6 5 4 4 5 5 5 5
3 3 2 2 2 2 2 2 2 3 3 3 3 2 2 2 2 2 3 3 0 2 2 2 2 2 2 3 4 4 4 5 5 5 5 5 5 3 3 4 4 5 6
2 2 2 2 2 1 2 2 2 2 3 3 3 3 2 2 2 2 2 3 3 1 2 2 2 2 2 2 3 3 3 4 4 5 5 5 4 3 2 3 3 4 5
2 1 1 2 2 1 1 2 2 2 3 2 2 3 2 1 2 2 2 2 2 3 2 3 2 2 2 2 3 3 3 4 4 4 5 4 4 3 2 2 3 3 4
2 2 2 2 2 2 2 2 2 2 3 3 2 3 3 3 2 2 2 2 2 2 3 3 2 1 1 2 3 2 2 2 2 4 4 4 3 3 3 2 3 3 3
2 2 2 2 1 2 2 3 3 2 3 3 3 3 3 3 3 3 3 3 3 3 3 3 2 1 2 2 2 2 2 2 2 3 4 4 3 3 3 3 3 3 3
1 1 2 2 2 2 2 2 3 3 3 3 4 4 4 4 4 3 3 3 3 2 2 2 2 1 1 1 1 2 2 2 2 3 3 4 4 3 3 4 3 3 3
2 1 1 2 2 1 2 2 2 3 2 2 3 4 4 5 5 5 4 4 3 2 2 2 1 1 1 1 1 1 2 1 2 2 3 3 4 4 4 4 4 3 4
1 1 1 1 1 1 2 2 3 3 3 2 2 3 3 4 5 4 3 4 4 3 2 2 2 1 1 0 1 1 1 1 2 1 2 2 2 3 4 5 4 4 4
1 1 1 1 1 1 2 2 3 3 3 3 3 3 3 3 4 5 5 5 5 5 4 3 3 3 3 3 2 1 1 0 2 1 1 2 1 2 3 3 4 4 4
1 1 1 1 2 3 3 3 3 3 3 3 3 3 2 2 2 2 3 3 4 5 6 5 5 5 4 5 4 2 2 2 2 1 0 2 1 2 3 4 4 4 5
2 2 2 2 3 3 3 3 3 2 3 3 3 3 3 2 2 2 2 1 2 3 5 4 5 5 4 4 5 4 4 2 0 1 1 1 1 2 3 4 4 4 4
2 3 2 2 3 3 3 3 2 2 2 2 2 2 3 2 2 1 2 2 2 2 3 3 4 3 3 4 5 3 2 1 1 1 1 1 1 2 2 2 4 4 3
3 3 2 2 3 3 3 3 3 2 1 1 2 2 2 2 3 2 2 2 2 3 1 0 0 0 0 2 5 4 4 3 1 2 2 2 1 0 2 2 2 3 3
Wind_Direction
73 65 60 62 62 68 71 68 69 67 65 61 59 56 48 46 44 40 38 47 53 56 59 63 65 70 74 78 82 81 76 70 65 62 61 59 58 58 59 57 58 55 56
95 82 70 66 69 77 80 81 77 72 65 65 58 53 49 49 48 44 41 42 45 48 55 60 63 66 70 71 73 74 71 66 62 59 59 58 57 57 55 54 53 53 56
114 103 89 77 81 90 88 80 71 72 70 65 54 51 50 46 46 44 41 41 41 43 49 53 56 62 67 67 69 70 66 61 58 56 56 55 53 53 51 50 48 52 55
131 114 99 88 95 96 92 86 75 74 66 66 57 44 43 40 38 41 42 41 40 39 41 44 46 54 60 66 68 67 63 57 55 52 52 51 50 51 50 47 50 53 52
142 125 113 102 104 94 84 91 78 89 86 71 68 51 38 35 32 38 38 38 39 38 37 36 41 45 50 58 66 66 64 59 53 51 50 49 47 49 54 53 50 49 50
143 127 113 109 112 105 86 88 90 73 88 84 75 59 41 34 38 33 30 34 37 38 39 37 37 38 43 51 57 59 59 56 53 50 48 47 45 45 49 52 49 48 51
138 130 118 111 114 122 123 112 100 86 65 70 73 47 26 32 41 33 28 32 32 33 38 37 36 37 33 40 46 49 49 47 47 48 46 46 45 42 42 46 50 51 50
134 133 129 132 126 122 115 112 109 98 70 67 98 86 28 3 12 24 22 30 26 27 32 32 34 36 33 31 34 40 40 41 41 41 40 42 46 44 39 39 41 47 45
143 140 141 138 138 142 147 147 138 125 126 55 77 122 124 227 324 347 10 23 23 24 20 21 27 30 31 27 21 24 35 37 36 33 32 38 40 42 44 45 44 45 43
121 134 140 141 143 144 156 167 149 140 133 125 72 68 115 148 139 334 344 1 16 21 12 14 12 17 21 19 17 21 27 33 32 28 29 32 33 36 39 43 44 45 41
68 113 135 138 143 153 166 161 139 135 135 142 140 123 96 75 100 147 286 328 353 354 358 357 2 5 9 11 9 13 20 25 26 23 23 23 25 26 33 37 37 38 35
342 71 128 136 155 165 174 168 154 147 143 134 135 138 146 150 170 158 194 272 313 318 334 346 352 348 351 356 359 7 13 18 19 17 16 15 17 22 27 28 29 34 36
228 233 184 176 184 188 171 150 151 158 156 152 157 165 165 166 155 155 154 193 293 309 325 330 325 326 334 342 340 3 9 12 13 14 13 10 9 16 21 22 28 31 31
211 211 203 201 202 186 166 149 157 175 167 169 172 167 166 179 160 158 162 155 101 327 326 296 317 314 320 326 325 350 353 2 10 9 7 3 3 9 19 20 29 28 25
201 196 195 196 195 179 168 158 170 181 169 181 180 176 173 185 175 172 158 158 158 207 269 270 285 306 300 297 315 338 337 346 360 2 0 358 357 2 15 25 24 23 18
189 169 185 199 197 190 179 176 185 191 169 185 177 171 180 188 171 164 168 166 166 175 221 247 245 278 300 295 316 326 316 334 346 356 359 3 8 2 359 10 12 10 7
180 176 189 183 192 202 184 176 195 187 191 198 188 184 202 186 180 179 170 165 172 165 209 261 261 289 289 308 327 331 316 324 330 347 354 358 5 12 10 358 354 352 355
195 184 176 185 205 208 188 181 196 190 197 207 207 194 209 195 192 192 185 191 196 189 191 234 261 268 272 290 308 323 331 321 311 336 350 352 348 357 354 348 339 335 340
186 157 153 182 206 210 198 199 195 199 204 213 210 205 209 190 205 206 197 200 203 196 190 196 238 249 276 328 346 334 344 341 321 320 331 338 338 335 339 340 334 322 327
159 164 178 191 203 205 205 204 194 203 209 225 227 219 208 205 209 203 203 206 193 181 170 178 210 245 268 329 31 341 335 333 325 331 325 325 331 337 333 331 332 329 329
179 187 180 210 219 214 223 213 205 205 205 227 247 241 228 219 215 204 205 199 183 184 178 182 198 207 243 268 259 243 262 309 311 326 336 328 329 332 325 317 311 315 321
189 159 188 217 231 249 262 226 204 206 206 215 239 250 242 219 221 221 220 203 187 183 190 191 203 213 232 224 212 204 189 69 293 306 299 302 322 304 302 300 308 315 320
195 210 230 221 241 258 262 241 215 193 208 218 222 224 233 226 211 216 226 220 219 215 196 188 197 218 219 212 186 193 204 216 235 257 212 275 290 287 293 295 297 304 312
214 224 241 238 246 268 277 263 233 191 210 224 218 214 218 223 211 197 193 201 236 242 229 215 208 219 222 203 191 195 201 196 244 304 153 238 274 277 297 293 296 300 304
232 236 242 243 245 268 265 248 196 170 202 236 237 225 215 214 225 184 166 192 238 275 266 226 225 225 212 186 160 136 139 141 244 252 205 199 242 280 287 282 296 304 303
233 239 246 243 241 253 257 223 184 165 187 234 244 241 231 215 207 189 179 185 215 246 226 198 202 294 156 174 176 175 179 180 194 232 217 188 205 289 301 288 305 317 311
Height
1531 1531 1531 1531 1531 1531 1531 1531 1531 1530 1530 1530 1529 1529 1528 1528 1527 1526 1525 1525 1524 1523 1523 1522 1521 1520 1519 1519 1520 1521 1521 1522 1523 1523 1523 1523 1523 1523 1523 1523 1523 1524 1524
1532 1532 1532 1532 1532 1532 1533 1533 1532 1532 1532 1531 1531 1530 1530 1529 1529 1528 1527 1526 1525 1525 1524 1523 1522 1522 1521 1521 1522 1522 1522 1523 1523 1523 1523 1523 1523 1523 1523 1523 1523 1524 1524
1534 1534 1533 1533 1533 1534 1534 1534 1534 1533 1533 1533 1532 1532 1532 1531 1530 1530 1529 1528 1527 1526 1526 1525 1524 1524 1523 1523 1523 1523 1523 1524 1524 1523 1523 1523 1522 1522 1523 1523 1523 1523 1524
1535 1535 1535 1534 1535 1535 1535 1535 1535 1535 1534 1534 1534 1533 1533 1533 1532 1532 1531 1530 1529 1528 1527 1526 1526 1525 1524 1524 1523 1524 1524 1524 1524 1524 1523 1523 1522 1522 1522 1523 1523 1523 1523
1535 1535 1535 1535 1536 1536 1536 1536 1536 1536 1535 1535 1535 1534 1534 1534 1534 1533 1532 1531 1531 1530 1529 1528 1527 1526 1525 1524 1523 1524 1525 1525 1525 1524 1524 1523 1523 1522 1522 1522 1523 1523 1523
1535 1536 1536 1536 1536 1536 1536 1536 1536 1536 1536 1536 1535 1535 1535 1535 1535 1534 1534 1533 1532 1531 1530 1529 1528 1527 1526 1525 1525 1525 1525 1525 1525 1525 1524 1524 1523 1523 1522 1522 1522 1523 1523
1536 1536 1536 1536 1536 1536 1536 1536 1536 1536 1536 1536 1536 1536 1536 1536 1536 1535 1535 1534 1534 1533 1532 1531 1530 1529 1528 1527 1527 1526 1526 1526 1525 1525 1525 1524 1523 1523 1523 1523 1522 1523 1523
1536 1536 1536 1536 1536 1536 1536 1536 1536 1536 1536 1536 1536 1536 1536 1537 1536 1536 1535 1535 1534 1534 1533 1532 1531 1530 1529 1528 1528 1527 1527 1527 1526 1526 1525 1524 1523 1523 1523 1523 1523 1522 1522
1535 1536 1536 1536 1536 1536 1536 1536 1536 1536 1536 1536 1536 1537 1537 1537 1537 1537 1536 1535 1535 1534 1533 1533 1532 1531 1530 1529 1529 1528 1527 1527 1526 1525 1525 1524 1523 1523 1523 1522 1522 1522 1522
1535 1535 1535 1535 1535 1535 1536 1536 1536 1536 1536 1536 1536 1537 1538 1537 1537 1537 1537 1536 1535 1534 1534 1533 1532 1532 1531 1530 1529 1529 1528 1527 1526 1525 1525 1524 1523 1523 1523 1522 1522 1522 1521
1534 1534 1534 1534 1534 1535 1535 1535 1535 1536 1536 1536 1536 1537 1537 1537 1537 1537 1536 1535 1535 1535 1534 1533 1532 1532 1531 1530 1530 1529 1528 1527 1526 1525 1524 1524 1523 1522 1522 1522 1522 1521 1521
1532 1532 1533 1533 1533 1533 1534 1534 1534 1535 1535 1536 1536 1536 1536 1536 1536 1536 1535 1535 1534 1534 1534 1533 1532 1532 1531 1530 1529 1529 1528 1527 1526 1525 1524 1523 1522 1522 1521 1521 1521 1521 1520
1530 1530 1531 1531 1531 1532 1533 1533 1533 1534 1534 1535 1535 1535 1535 1535 1536 1535 1535 1534 1533 1533 1533 1533 1532 1531 1531 1530 1529 1528 1528 1527 1526 1525 1523 1522 1521 1521 1521 1520 1520 1520 1520
1528 1529 1529 1529 1530 1530 1531 1531 1532 1532 1533 1533 1533 1534 1534 1534 1534 1534 1534 1533 1532 1532 1531 1531 1531 1531 1530 1529 1528 1528 1527 1526 1525 1524 1523 1522 1521 1520 1520 1520 1519 1519 1519
1526 1527 1527 1527 1528 1528 1528 1529 1530 1530 1531 1531 1532 1532 1532 1532 1532 1533 1532 1533 1533 1531 1530 1530 1530 1529 1529 1528 1527 1527 1526 1525 1524 1523 1522 1521 1520 1519 1519 1519 1518 1518 1518
1524 1524 1524 1525 1525 1526 1526 1526 1527 1528 1528 1529 1529 1530 1530 1530 1531 1531 1531 1531 1531 1530 1529 1528 1528 1528 1527 1526 1526 1525 1524 1523 1522 1521 1520 1519 1519 1518 1518 1517 1517 1517 1516
1521 1521 1521 1522 1523 1523 1523 1524 1524 1525 1526 1526 1527 1527 1527 1528 1528 1528 1528 1528 1528 1528 1527 1526 1526 1526 1525 1524 1524 1523 1522 1522 1521 1520 1519 1518 1517 1517 1516 1516 1515 1515 1515
1519 1519 1519 1519 1520 1520 1520 1521 1521 1522 1523 1523 1524 1524 1525 1525 1526 1526 1526 1525 1525 1525 1525 1524 1524 1523 1523 1522 1522 1521 1521 1520 1519 1518 1518 1517 1516 1515 1515 1514 1514 1514 1513
1516 1516 1516 1516 1517 1517 1517 1518 1518 1519 1519 1520 1520 1521 1522 1522 1522 1523 1523 1523 1523 1522 1522 1521 1521 1521 1521 1520 1519 1519 1518 1518 1517 1517 1516 1515 1514 1514 1513 1513 1512 1512 1512
1513 1513 1513 1513 1514 1514 1514 1514 1515 1515 1516 1516 1517 1518 1518 1519 1519 1519 1519 1519 1520 1519 1519 1519 1518 1518 1518 1518 1517 1516 1516 1516 1515 1515 1514 1513 1513 1512 1511 1511 1510 1510 1510
1510 1510 1511 1511 1511 1511 1511 1511 1511 1512 1512 1513 1514 1514 1515 1515 1516 1516 1516 1516 1516 1516 1516 1515 1515 1515 1515 1515 1514 1514 1514 1513 1513 1513 1512 1511 1511 1510 1509 1509 1509 1508 1508
1507 1507 1507 1508 1508 1508 1508 1508 1508 1508 1508 1509 1510 1510 1511 1512 1512 1513 1513 1513 1513 1513 1512 1512 1512 1512 1512 1512 1512 1512 1511 1511 1510 1511 1510 1509 1509 1508 1507 1507 1507 1506 1506
1504 1504 1504 1504 1504 1505 1505 1504 1505 1505 1505 1505 1506 1507 1507 1508 1508 1509 1509 1509 1509 1509 1510 1510 1509 1509 1509 1509 1509 1509 1509 1509 1508 1508 1507 1506 1506 1505 1505 1505 1505 1504 1504
1500 1501 1501 1501 1501 1501 1501 1501 1501 1501 1502 1502 1502 1503 1503 1504 1504 1505 1505 1505 1505 1505 1506 1506 1506 1506 1506 1507 1507 1507 1506 1506 1505 1505 1505 1504 1504 1503 1503 1503 1503 1502 1502
1497 1497 1497 1497 1497 1497 1498 1498 1498 1498 1498 1498 1499 1499 1500 1500 1500 1501 1501 1501 1501 1501 1502 1502 1502 1503 1503 1503 1503 1503 1503 1502 1502 1502 1502 1501 1501 1500 1500 1500 1500 1499 1499
1494 1494 1494 1494 1494 1494 1494 1494 1494 1494 1494 1494 1495 1495 1496 1496 1496 1496 1497 1497 1497 1497 1498 1498 1498 1499 1499 1499 1500 1500 1500 1499 1499 1498 1498 1499 1498 1498 1497 1496 1497 1496 1495